This demonstration page uses our WeatherBlox Daily Observations layout. Learn more.

Left ArrowRight Arrow

Hourly Observations for December 19, 2021

Temp ( °F °C ) Dew Point ( °F °C ) Humidity (%) Winds ( mph kmh ) Pressure ( in mb ) Visibility ( mi km ) Precip ( " mm )
12:56 am 00:56 Clear 13 -10.6 7 -13.9 77 77 SSW 12 19 30.33 1027 10 16 0.00 0.00
1:56 am 01:56 Clear 12 -11.1 6 -14.4 77 77 S 6 9 30.30 1026 10 16 0.00 0.00
2:56 am 02:56 Clear 14 -10 8 -13.3 77 77 SSW 13 20 30.27 1025 10 16 0.00 0.00
3:56 am 03:56 Clear 15 -9.4 8 -13.3 74 74 S 9 15 30.27 1025 10 16 0.00 0.00
4:56 am 04:56 Clear 13 -10.6 8 -13.3 81 81 S 8 13 30.26 1025 10 16 0.00 0.00
5:56 am 05:56 Clear 15 -9.4 8 -13.3 74 74 S 12 19 30.23 1024 10 16 0.00 0.00
6:56 am 06:56 Clear 14 -10 8 -13.3 77 77 S 13 20 30.23 1024 10 16 0.00 0.00
7:56 am 07:56 Sunny 14 -10 8 -13.3 77 77 S 12 19 30.23 1024 10 16 0.00 0.00
8:56 am 08:56 Sunny 18 -7.8 11 -11.7 74 74 S 15 24 30.20 1023 10 16 0.00 0.00
9:56 am 09:56 Sunny 24 -4.4 12 -11.1 60 60 S 23 37 30.17 1022 10 16 0.00 0.00
10:56 am 10:56 Sunny 30 -1.1 13 -10.6 49 49 SSW 21 33 30.16 1021 10 16 0.00 0.00
11:56 am 11:56 Sunny 33 0.6 12 -11.1 42 42 S 20 31 30.11 1020 10 16 0.00 0.00
12:56 pm 12:56 Sunny 36 2.2 14 -10 40 40 SSW 20 31 30.07 1018 10 16 0.00 0.00
1:56 pm 13:56 Sunny 40 4.4 14 -10 35 35 SSW 18 30 30.05 1018 10 16 0.00 0.00
2:56 pm 14:56 Sunny 43 6.1 14 -10 31 31 SSW 16 26 30.02 1017 10 16 0.00 0.00
3:56 pm 15:56 Sunny 43 6.1 14 -10 31 31 S 17 28 30.01 1016 10 16 0.00 0.00
4:56 pm 16:56 Sunny 39 3.9 15 -9.4 38 38 S 12 19 30.01 1016 10 16 0.00 0.00
5:56 pm 17:56 Clear 37 2.8 16 -8.9 42 42 SSW 15 24 30.01 1016 10 16 0.00 0.00
6:56 pm 18:56 Clear 38 3.3 15 -9.4 39 39 SSW 17 28 30.01 1016 10 16 0.00 0.00
7:56 pm 19:56 Clear 37 2.8 15 -9.4 41 41 SSW 14 22 30.01 1016 10 16 0.00 0.00
8:56 pm 20:56 Clear 36 2.2 15 -9.4 42 42 SSW 16 26 30.01 1016 10 16 0.00 0.00
9:56 pm 21:56 Clear 36 2.2 16 -8.9 44 44 SW 13 20 30.01 1016 10 16 0.00 0.00
10:56 pm 22:56 Clear 33 0.6 16 -8.9 49 49 SSW 9 15 30.00 1016 10 16 0.00 0.00
11:56 pm 23:56 Clear 30 -1.1 17 -8.3 58 58 SW 8 13 30.00 1016 10 16 0.00 0.00

Powered by AerisWeather